Dimas Wibowo

Olheiro-Chefe - Dewa United
21 Out 2027
Quinta-feira
Processo

Personalidade

Adaptabilidade (10) Ambição (14) Controvérsia (17) Lealdade (3) Pressão (11) Profissionalismo (1) Espírito Esportivo (19) Temperamento (15)

Perfil

Estilo de Treinamento Democrático
Licença Nacional B
Determinação 3
Gestão de Pessoas 2
Motivação 7
Disciplina 6
Satisfação no Trabalho
100%
Fadiga
0%
Função Olheiro-Chefe
Salário 44.9K p/s
Contrato 14.03.2030

Desempenho

Comportamento Bom
Eficácia do Treinamento
31%
Desenvolvimento do Jogador
35%
Prevenção de Lesões
15%
Implementação Tática
25%

Eventos Recentes

Participou de uma reunião de recrutamento 7d atrás
Participou de uma reunião de recrutamento 14d atrás
Participou de uma reunião de recrutamento 21d atrás
Participou de uma reunião de recrutamento 28d atrás
Participou de uma reunião de recrutamento 35d atrás
Participou de uma reunião de recrutamento 42d atrás
Participou de uma reunião de recrutamento 49d atrás
Participou de uma reunião de recrutamento 56d atrás

Monitorando agora

167
Jogador Clube Status Habilidade Confiança Observado Última observação Último voto
Juan Manuel Carrizo Chaco For Ever Ativo 85 / 95 40% 1 12.08.2027 -
Gledson PSM Ativo 104 / 99 40% 1 12.08.2027 -
Muhammed Kabiru PSIM Ativo 112 / 98 40% 1 05.08.2027 -
Agustín Aleo Central Norte Ativo 123 / 94 40% 1 05.08.2027 -
Lautaro Ríos Banfield Ativo 128 / 118 40% 1 03.08.2027 -
Louis Thompson Stevenage Ativo 92 / 105 40% 1 03.08.2027 -
Radovan Pankov Persija Ativo 127 / 104 40% 4 01.08.2027 -
Juan José Vásquez Union Magdalena Ativo 82 / 102 40% 2 01.08.2027 -
Kerim Palić Madura United Ativo 94 / 109 40% 1 31.07.2027 -
Erik de los Santos Racing Ativo 102 / 126 40% 4 30.07.2027 -
Zane Albarus Cambridge United Ativo 83 / 106 40% 3 30.07.2027 -
José Castellano Mineros de Guayana Ativo 91 / 95 40% 1 29.07.2027 -
Imanol García Persik Ativo 114 / 88 40% 1 29.07.2027 -
Andrés Álvarez Aguilas Doradas Ativo 105 / 110 40% 2 27.07.2027 -
Gonzalo Asis Almagro Ativo 122 / 128 40% 1 27.07.2027 -
Yeferson Rodallega Envigado Ativo 129 / 108 40% 3 26.07.2027 -
Finley Potter Fleetwood Town Ativo 86 / 98 40% 1 26.07.2027 -
Danylo Sydorenko Ahrobiznes Ativo 109 / 107 40% 2 24.07.2027 -
Rodrigo Sosa Atlanta Ativo 92 / 111 40% 1 24.07.2027 -
Kelechi Nwakali Barnsley Ativo 122 / 98 40% 2 23.07.2027 -
Bruno Tubarão Persija Ativo 131 / 117 40% 1 23.07.2027 -
Mathías Silvera Chaco For Ever Ativo 91 / 100 40% 3 22.07.2027 -
Juan José Tello Deportivo Cali Ativo 123 / 102 40% 1 22.07.2027 -
Mykola Buzhyn Poltava Ativo 109 / 94 40% 1 20.07.2027 -
Agustín Ojeda Chaco For Ever Ativo 90 / 101 40% 1 20.07.2027 -
Sávio PSM Ativo 107 / 88 40% 3 19.07.2027 -
Mohamad Anez Borneo Ativo 95 / 84 40% 1 17.07.2027 -
Islamzhan Nasyrov Ryazan Ativo 109 / 83 40% 2 15.07.2027 -
Agustín Chopitea Colon Ativo 90 / 90 40% 2 14.07.2027 -
Milorad Stajić Brisbane Roar Ativo 109 / 86 40% 1 14.07.2027 -
Kirill Malyarov Shinnik Ativo 84 / 91 40% 2 12.07.2027 -
Juan Ignacio Dupont Central Espanol Ativo 77 / 97 40% 1 11.07.2027 -
Maximiliano Ribero Central Norte Ativo 109 / 102 40% 1 10.07.2027 -
Salvatore Pezzella Casertana Ativo 132 / 92 40% 1 08.07.2027 -
Ousmane Ndong Akhmat Grozny Ativo 109 / 99 40% 1 06.07.2027 -
Ben Woods Peterborough United Ativo 78 / 99 40% 1 03.07.2027 -
Lucas Angelini Temperley Ativo 108 / 103 40% 1 02.07.2027 -
Martín Vallejos Quilmes Ativo 103 / 112 40% 3 01.07.2027 -
Jaime Giraldo Semen Padang Ativo 94 / 100 40% 2 01.07.2027 -
Simone Iob Siracusa Ativo 121 / 95 40% 1 30.06.2027 -
Nazariy Muravskyy LNZ Ativo 106 / 113 40% 1 30.06.2027 -
Cesare Pogliano Pro Patria Ativo 115 / 96 40% 1 27.06.2027 -
Pablo Oliveira Arema Ativo 88 / 101 40% 1 23.06.2027 -
Daniil Kornyushin Shinnik Ativo 89 / 105 40% 1 21.06.2027 -
Ramiro Fernández Almirante Brown Ativo 112 / 92 40% 1 21.06.2027 -
Daniil Penchikov Arsenal Tula Ativo 85 / 111 40% 1 15.06.2027 -
Francesco Toffanin Virtus Verona Ativo 96 / 95 40% 4 14.06.2027 -
Konstantin Kertanov Chelyabinsk Ativo 94 / 110 40% 2 14.06.2027 -
Kane Smith Barnet Ativo 82 / 88 40% 2 10.06.2027 -
Donald Love Accrington Stanley Ativo 67 / 91 40% 1 10.06.2027 -
Francesco Rillo Picerno Ativo 92 / 92 40% 1 09.06.2027 -
Tim Receveur Bali United Ativo 84 / 107 37% 1 04.06.2027 -
David Kokoev Yenisey Ativo 121 / 99 40% 2 28.05.2027 -
Harrison Neal Fleetwood Town Ativo 113 / 107 40% 1 28.05.2027 -
Kamil Ibragimov Volga Ativo 100 / 99 40% 1 26.05.2027 -
Marco Bertini Pianese Ativo 77 / 99 40% 1 26.05.2027 -
Ruslan Chobanov Chaika Ativo 88 / 110 40% 1 24.05.2027 -
Alessandro Di Munno Pro Patria Ativo 84 / 109 40% 1 24.05.2027 -
Vasily Cherov Ufa Ativo 99 / 115 40% 2 23.05.2027 -
Myles Kenlock Barnet Ativo 67 / 74 40% 2 22.05.2027 -
Josh Dacres-Cogley Stockport County Ativo 99 / 102 40% 2 20.05.2027 -
Mattia Capoferri Pergolettese Ativo 89 / 105 40% 1 17.05.2027 -
Aidan Simmons Western Sydney Wanderers Ativo 80 / 100 40% 1 16.05.2027 -
Pavel Maslov Chaika Ativo 115 / 113 40% 4 15.05.2027 -
Timofey Kalistratov KAMAZ Ativo 102 / 87 40% 1 15.05.2027 -
Finley McAllister Grimsby Town Ativo 67 / 90 40% 1 10.05.2027 -
Lorenzo Da Pozzo Ravenna Ativo 96 / 93 40% 3 08.05.2027 -
Vladis Emmersón Yenisey Ativo 85 / 91 40% 1 06.05.2027 -
Simone Kosijer Triestina Ativo 75 / 103 40% 2 28.04.2027 -
Oleg Lanin Shinnik Ativo 110 / 101 40% 1 27.04.2027 -
Nikita Pechenkin Sokol Ativo 78 / 116 40% 2 22.04.2027 -
Nikolay Tarasov Spartak Kostroma Ativo 111 / 107 40% 1 21.04.2027 -
Nicholas Osei-Bonsu Livyi Bereh Ativo 76 / 70 40% 1 19.04.2027 -
Artur Remeniak Feniks Ativo 110 / 92 40% 1 19.04.2027 -
Dmitry Ivannikov Chaika Ativo 102 / 109 40% 1 17.04.2027 -
Tigran Avanesyan Arsenal Tula Ativo 85 / 93 40% 1 17.04.2027 -
Ben Purrington Cambridge United Ativo 107 / 82 40% 2 14.04.2027 -
Léo Cordeiro Ural Ativo 117 / 103 40% 2 14.04.2027 -
Petro Lutsiv Metalist Ativo 84 / 108 40% 1 10.04.2027 -
Mykyta Kononov Poltava Ativo 101 / 99 40% 1 09.04.2027 -
Kacper Gach Podbeskidzie Ativo 115 / 103 40% 1 05.04.2027 -
Ivan Havrushko Ahrobiznes Ativo 73 / 75 40% 1 04.03.2027 -
Roman Zaschepkin KAMAZ Ativo 76 / 112 40% 1 02.02.2027 -
Septian David Maluku Utara United Ativo 89 / 92 37% 1 04.01.2027 -
Júnior Brandão Madura United Ativo 126 / 111 40% 3 30.12.2026 -
Mevran Ablak Angusht Ativo 87 / 66 40% 1 30.12.2026 -
Aleksej Golijanin Sokol Ativo 104 / 96 40% 2 29.12.2026 -
Nikita Simdyankin KDV Tomsk Ativo 108 / 78 40% 1 27.12.2026 -
Magomed Nasibov Pobeda Ativo 86 / 104 40% 1 26.12.2026 -
Patrick Luan Arda Ativo 76 / 110 40% 1 26.12.2026 -
Dalberto Arema Ativo 115 / 112 40% 4 25.12.2026 -
Daniil Kondrakov KDV Tomsk Ativo 113 / 80 40% 1 25.12.2026 -
Milan Ristovski Bhayangkara Presisi Ativo 124 / 117 40% 5 24.12.2026 -
Georgy Melkadze Akhmat Grozny Ativo 137 / 104 40% 2 24.12.2026 -
Andrew Jung Persib Ativo 124 / 108 40% 1 23.12.2026 -
Artem Maximenko Nizhniy Novgorod Ativo 86 / 103 40% 1 22.12.2026 -
Amur Kalmykov Spartak Kostroma Ativo 113 / 100 40% 2 18.12.2026 -
Anton Betyuzhnov Dinamo Vologda Ativo 54 / 70 40% 1 18.12.2026 -
Alexey Skvortsov Metallurg Ativo 77 / 100 40% 2 17.12.2026 -
Carlos Zepeda Strogino Ativo 74 / 64 40% 1 16.12.2026 -
Anton Fase PSIM Ativo 113 / 105 40% 4 15.12.2026 -
Ilja Azyavin Arsenal Tula Ativo 83 / 95 40% 1 15.12.2026 -
Vladislav Sarveli Nizhniy Novgorod Ativo 97 / 103 40% 1 14.12.2026 -
Kodai Tanaka PSM Ativo 81 / 84 40% 3 13.12.2026 -
Hazeem Bakre Crawley Town Ativo 74 / 78 40% 1 11.12.2026 -
Fabricio Rojas Gimnasia y Tiro Ativo 115 / 103 40% 2 09.12.2026 -
Naoufel Zerhouni Persib Ativo 99 / 109 40% 5 09.12.2026 -
Ruslan Apekov Torpedo Moscow Ativo 97 / 95 40% 2 07.12.2026 -
Matías Sosa Arsenal Ativo 92 / 115 40% 1 07.12.2026 -
Ekain Orobengoa Real Sociedad Ativo 116 / 84 40% 1 03.12.2026 -
Edarlyn Reyes Arsenal Tula Ativo 128 / 122 40% 1 01.12.2026 -
Diego Campos Bali United Ativo 119 / 115 40% 3 30.11.2026 -
Tomás Orqueida Mattersburg Ativo 98 / 117 40% 2 30.11.2026 -
Mikhail Gainov Dinamo Stavropol Ativo 59 / 91 40% 1 29.11.2026 -
Kianz Froese Semen Padang Ativo 90 / 88 40% 2 23.11.2026 -
Facundo Pons San Martín Ativo 125 / 120 40% 1 22.11.2026 -
Amar Rahmanović Krylya Sovetov Ativo 101 / 125 40% 1 22.11.2026 -
Lucas Morelatto Persijap Ativo 113 / 92 40% 1 19.11.2026 -
Nermin Haljeta PSIM Ativo 96 / 100 40% 2 14.11.2026 -
Alexandre Ramalingom Persita Ativo 126 / 116 40% 3 13.11.2026 -
Luka Čumić PSM Ativo 100 / 108 40% 3 11.11.2026 -
Cecilio Waterman Fenix Ativo 100 / 102 40% 1 09.11.2026 -
Gustavo França Arema Ativo 97 / 100 40% 4 04.11.2026 -
Franco Toloza Morón Ativo 95 / 128 40% 1 02.11.2026 -
Gaspar Duarte Rosario Central Ativo 113 / 122 40% 1 02.11.2026 -
Ayman Sellouf Persija Ativo 106 / 90 40% 3 31.10.2026 -
Mihailo Perović Persebaya Ativo 105 / 110 40% 2 30.10.2026 -
Alexis Gómez Persijap Ativo 103 / 108 40% 2 21.10.2026 -
Oswaldo Valencia Arema Ativo 100 / 88 40% 1 21.10.2026 -
Adrián Dalmau PSIM Ativo 102 / 115 40% 3 20.10.2026 -
Sergio Castel Persik Ativo 99 / 120 40% 2 19.10.2026 -
Moussa Sidibé Bhayangkara Presisi Ativo 93 / 102 40% 3 19.10.2026 -
Bruno Hernández Cerro Largo Ativo 110 / 84 40% 1 17.10.2026 -
Abu Kamara Persis Ativo 109 / 93 40% 1 14.10.2026 -
Jurica Poldrugač Rudes Ativo 98 / 112 40% 2 12.10.2026 -
Nicolás Molina Temperley Ativo 121 / 119 40% 1 12.10.2026 -
Mohcine Hassan PSBS Biak Ativo 82 / 88 40% 2 11.10.2026 -
Maximo Ingravidi Colón Ativo 107 / 121 40% 2 08.10.2026 -
Gustavo Almeida Persija Ativo 82 / 83 40% 1 04.10.2026 -
Pedro Lucas Olimpija Ljubljana Ativo 130 / 84 40% 1 04.10.2026 -
Alexander Jeremejeff Persija Ativo 104 / 128 40% 1 03.10.2026 -
Sutanto Tan Persis Ativo 76 / 70 40% 1 30.09.2026 -
Jort van der Sande Bali United Ativo 87 / 99 40% 1 29.09.2026 -
Marcos Camarda Santiago Wanderers Ativo 111 / 96 40% 1 28.09.2026 -
Uilliam Barros Persib Ativo 115 / 101 40% 2 27.09.2026 -
Isaac Matondo Koper Ativo 85 / 118 40% 1 26.09.2026 -
Francisco Galván Deportivo Municipal Ativo 125 / 107 40% 2 25.09.2026 -
Diego Diellos San Martín Ativo 94 / 100 40% 2 25.09.2026 -
Bernard Henri Doumbia Bhayangkara Presisi Ativo 87 / 79 40% 1 24.09.2026 -
Diego Valencia Universidad Catolica Ativo 119 / 121 40% 1 22.09.2026 -
Rhys Oates Mansfield Town Ativo 91 / 111 40% 1 15.09.2026 -
Diego Maurício Semen Padang Ativo 96 / 106 40% 1 13.09.2026 -
Agustín Bianciotti Metropolitanos Ativo 97 / 106 40% 1 13.09.2026 -
Koldo Obieta Borneo Ativo 115 / 96 40% 1 12.09.2026 -
Guillermo Semen Padang Ativo 73 / 92 40% 1 09.09.2026 -
Ahmad Noviandani Madura United Ativo 84 / 95 40% 1 09.09.2026 -
Boris Kopitović Bali United Ativo 109 / 79 40% 1 07.09.2026 -
Alexis Canelo Atlético Tucumán Ativo 126 / 132 40% 1 06.09.2026 -
Tobías Ganduglia Independiente Rivadavia Ativo 109 / 85 40% 1 04.09.2026 -
Dedik Setiawan Arema Ativo 86 / 98 40% 1 20.08.2026 -
Joaquín Zappacosta Morón Ativo 93 / 93 40% 1 17.08.2026 -
Danilo Santacruz Madura United Ativo 120 / 113 40% 1 12.08.2026 -
Riquelme Madura United Ativo 94 / 102 40% 1 11.08.2026 -
Ciro Maluku Utara United Ativo 87 / 98 37% 1 10.08.2026 -
Ignacio Cuello Atlético Tucumán Ativo 70 / 94 40% 1 08.08.2026 -
Genaro Rossi San Martín SJ Ativo 111 / 120 40% 1 06.08.2026 -
Nicolás Orsini Barracas Central Ativo 125 / 132 40% 1 02.08.2026 -